| time (UTC) | temp F | wind direction | speed MPH | gust MPH | rain 1hr in | rain 24hr in | rain mn in | humidity % | barometer mb |
| 20260510211551 | 60 | 252 | 1.0 | 3.0 | 0.00 | 0.07 | 0.01 | 87 | 1015.0 |
| 20260510211049 | 60 | 252 | 1.0 | 5.0 | 0.00 | 0.07 | 0.01 | 87 | 1015.0 |
| 20260510210548 | 60 | 252 | 2.0 | 5.0 | 0.00 | 0.07 | 0.01 | 86 | 1015.0 |
| 20260510210049 | 61 | 252 | 1.0 | 7.0 | 0.00 | 0.08 | 0.01 | 85 | 1014.9 |
| 20260510205549 | 61 | 252 | 2.0 | 7.0 | 0.00 | 0.08 | 0.01 | 85 | 1014.8 |
| 20260510205050 | 60 | 252 | 2.0 | 8.0 | 0.00 | 0.08 | 0.01 | 87 | 1014.7 |
| 20260510204553 | 59 | 252 | 4.0 | 8.0 | 0.00 | 0.08 | 0.01 | 88 | 1014.7 |
| 20260510204052 | 59 | 252 | 3.0 | 8.0 | 0.00 | 0.08 | 0.01 | 88 | 1014.8 |
| 20260510203548 | 59 | 252 | 1.0 | 5.0 | 0.00 | 0.08 | 0.01 | 88 | 1014.8 |
| 20260510203047 | 58 | 252 | 3.0 | 5.0 | 0.00 | 0.08 | 0.01 | 89 | 1014.8 |
| 20260510202548 | 58 | 252 | 2.0 | 7.0 | 0.00 | 0.08 | 0.01 | 89 | 1014.8 |
| 20260510202048 | 58 | 252 | 3.0 | 7.0 | 0.00 | 0.08 | 0.01 | 89 | 1014.8 |
| 20260510201547 | 59 | 252 | 1.0 | 9.0 | 0.00 | 0.08 | 0.01 | 90 | 1014.9 |
| 20260510201047 | 59 | 252 | 3.0 | 9.0 | 0.00 | 0.08 | 0.01 | 88 | 1014.9 |
| 20260510200550 | 60 | 252 | 3.0 | 7.0 | 0.00 | 0.08 | 0.01 | 87 | 1014.9 |
| 20260510200054 | 60 | 252 | 0.0 | 3.0 | 0.00 | 0.15 | 0.01 | 87 | 1014.7 |
| 20260510195547 | 60 | 252 | 1.0 | 5.0 | 0.00 | 0.15 | 0.01 | 87 | 1014.9 |
| 20260510195047 | 60 | 252 | 0.0 | 7.0 | 0.00 | 0.15 | 0.01 | 87 | 1014.8 |
| 20260510194551 | 61 | 252 | 3.0 | 7.0 | 0.00 | 0.15 | 0.01 | 86 | 1015.1 |
| 20260510194047 | 61 | 252 | 0.0 | 4.0 | 0.00 | 0.15 | 0.01 | 86 | 1015.1 |
| 20260510193547 | 60 | 252 | 0.0 | 7.0 | 0.00 | 0.15 | 0.01 | 88 | 1015.0 |
| 20260510193053 | 60 | 252 | 4.0 | 7.0 | 0.00 | 0.15 | 0.01 | 87 | 1015.1 |
| 20260510192546 | 60 | 252 | 4.0 | 8.0 | 0.00 | 0.15 | 0.01 | 85 | 1015.0 |
| 20260510192046 | 62 | 252 | 1.0 | 7.0 | 0.00 | 0.15 | 0.01 | 86 | 1015.0 |
| 20260510191546 | 60 | 252 | 3.0 | 8.0 | 0.00 | 0.15 | 0.01 | 86 | 1014.9 |
| 20260510191048 | 61 | 252 | 2.0 | 8.0 | 0.00 | 0.15 | 0.01 | 87 | 1015.1 |
| 20260510190546 | 61 | 252 | 2.0 | 5.0 | 0.00 | 0.15 | 0.01 | 85 | 1015.2 |
| 20260510190047 | 61 | 252 | 2.0 | 7.0 | 0.00 | 0.32 | 0.01 | 86 | 1015.2 |
| 20260510185547 | 61 | 252 | 1.0 | 8.0 | 0.00 | 0.32 | 0.01 | 86 | 1015.3 |
| 20260510185046 | 61 | 252 | 2.0 | 8.0 | 0.00 | 0.32 | 0.01 | 86 | 1015.2 |
| 20260510184552 | 61 | 252 | 2.0 | 7.0 | 0.00 | 0.32 | 0.01 | 86 | 1015.2 |
| 20260510184046 | 61 | 252 | 3.0 | 7.0 | 0.00 | 0.32 | 0.01 | 86 | 1015.2 |
| 20260510183546 | 62 | 252 | 1.0 | 7.0 | 0.00 | 0.32 | 0.01 | 85 | 1015.1 |
| 20260510183044 | 62 | 252 | 2.0 | 9.0 | 0.00 | 0.32 | 0.01 | 84 | 1015.1 |
| 20260510182545 | 62 | 252 | 4.0 | 9.0 | 0.00 | 0.32 | 0.01 | 84 | 1015.2 |
| 20260510182042 | 61 | 252 | 1.0 | 8.0 | 0.00 | 0.32 | 0.01 | 87 | 1015.1 |
| 20260510181543 | 61 | 252 | 4.0 | 8.0 | 0.00 | 0.32 | 0.01 | 85 | 1015.1 |
| 20260510181041 | 62 | 252 | 1.0 | 4.0 | 0.00 | 0.32 | 0.01 | 87 | 1015.1 |
| 20260510180542 | 61 | 252 | 2.0 | 4.0 | 0.00 | 0.32 | 0.01 | 88 | 1015.1 |
| 20260510180043 | 60 | 252 | 1.0 | 4.0 | 0.00 | 0.35 | 0.01 | 89 | 1015.1 |
| 20260510175541 | 60 | 252 | 1.0 | 4.0 | 0.00 | 0.35 | 0.01 | 86 | 1015.1 |
| 20260510175041 | 62 | 252 | 1.0 | 4.0 | 0.00 | 0.35 | 0.01 | 87 | 1015.1 |
| 20260510174547 | 61 | 252 | 1.0 | 7.0 | 0.00 | 0.35 | 0.01 | 87 | 1015.1 |
| 20260510174041 | 62 | 252 | 1.0 | 7.0 | 0.00 | 0.35 | 0.01 | 86 | 1015.2 |
| 20260510173539 | 61 | 252 | 1.0 | 5.0 | 0.00 | 0.35 | 0.01 | 89 | 1015.3 |
| 20260510173040 | 60 | 252 | 1.0 | 5.0 | 0.00 | 0.35 | 0.01 | 90 | 1015.2 |
| 20260510172537 | 60 | 252 | 1.0 | 7.0 | 0.00 | 0.35 | 0.01 | 90 | 1015.2 |
| 20260510172039 | 59 | 252 | 1.0 | 7.0 | 0.00 | 0.35 | 0.01 | 93 | 1015.1 |
| 20260510171539 | 59 | 252 | 1.0 | 4.0 | 0.00 | 0.35 | 0.01 | 94 | 1015.2 |
| 20260510171037 | 59 | 252 | 1.0 | 4.0 | 0.00 | 0.35 | 0.01 | 95 | 1015.1 |
| 20260510170534 | 58 | 252 | 1.0 | 3.0 | 0.00 | 0.35 | 0.01 | 96 | 1015.1 |
| 20260510170033 | 58 | 252 | 1.0 | 3.0 | 0.00 | 0.35 | 0.01 | 97 | 1015.3 |
| 20260510165532 | 58 | 252 | 1.0 | 3.0 | 0.00 | 0.35 | 0.01 | 98 | 1015.4 |
| 20260510165032 | 57 | 252 | 1.0 | 4.0 | 0.00 | 0.35 | 0.01 | 98 | 1015.3 |
| 20260510164535 | 56 | 252 | 2.0 | 5.0 | 0.00 | 0.35 | 0.01 | 98 | 1015.3 |
| 20260510164030 | 56 | 252 | 2.0 | 5.0 | 0.00 | 0.35 | 0.01 | 98 | 1015.3 |
| 20260510163531 | 56 | 252 | 2.0 | 5.0 | 0.00 | 0.35 | 0.01 | 98 | 1015.2 |
| 20260510163029 | 56 | 252 | 3.0 | 5.0 | 0.00 | 0.35 | 0.01 | 98 | 1015.3 |
| 20260510162528 | 56 | 252 | 2.0 | 4.0 | 0.00 | 0.35 | 0.01 | 99 | 1015.3 |
| 20260510162028 | 55 | 252 | 2.0 | 4.0 | 0.00 | 0.35 | 0.01 | 98 | 1015.5 |
| 20260510161533 | 55 | 252 | 1.0 | 4.0 | 0.00 | 0.35 | 0.01 | 98 | 1015.5 |
| 20260510161028 | 55 | 252 | 2.0 | 4.0 | 0.00 | 0.35 | 0.01 | 98 | 1015.5 |
| 20260510160528 | 55 | 252 | 1.0 | 3.0 | 0.00 | 0.35 | 0.01 | 99 | 1015.4 |
| 20260510160034 | 55 | 252 | 0.0 | 4.0 | 0.00 | 0.35 | 0.01 | 99 | 1015.4 |
| 20260510155530 | 55 | 252 | 1.0 | 3.0 | 0.00 | 0.35 | 0.01 | 99 | 1015.4 |
| 20260510155027 | 55 | 252 | 0.0 | 4.0 | 0.00 | 0.35 | 0.01 | 99 | 1015.6 |
| 20260510154527 | 55 | 252 | 1.0 | 4.0 | 0.00 | 0.35 | 0.01 | 99 | 1015.6 |
| 20260510154027 | 55 | 252 | 1.0 | 3.0 | 0.00 | 0.35 | 0.01 | 99 | 1015.7 |
| 20260510153625 | 55 | 252 | 1.0 | 4.0 | 0.00 | 0.35 | 0.01 | 99 | 1015.8 |
| 20260510153033 | 54 | 252 | 2.0 | 5.0 | 0.00 | 0.35 | 0.01 | 99 | 1015.7 |
| 20260510152529 | 55 | 252 | 2.0 | 5.0 | 0.00 | 0.35 | 0.01 | 99 | 1015.7 |
| 20260510152024 | 55 | 252 | 2.0 | 7.0 | 0.00 | 0.35 | 0.01 | 99 | 1015.6 |
| 20260510151524 | 55 | 252 | 3.0 | 7.0 | 0.00 | 0.35 | 0.01 | 99 | 1015.6 |
| 20260510151025 | 55 | 252 | 2.0 | 7.0 | 0.00 | 0.35 | 0.01 | 99 | 1015.7 |
| 20260510150524 | 55 | 252 | 3.0 | 7.0 | 0.00 | 0.35 | 0.01 | 99 | 1015.7 |
| 20260510150037 | 55 | 252 | 3.0 | 7.0 | 0.00 | 0.35 | 0.01 | 99 | 1015.7 |
| 20260510145528 | 55 | 252 | 3.0 | 7.0 | 0.00 | 0.35 | 0.01 | 99 | 1015.7 |
| 20260510145023 | 55 | 252 | 2.0 | 5.0 | 0.00 | 0.35 | 0.01 | 99 | 1015.7 |
| 20260510144523 | 55 | 252 | 0.0 | 5.0 | 0.00 | 0.35 | 0.01 | 99 | 1015.7 |
| 20260510144022 | 54 | 252 | 2.0 | 5.0 | 0.00 | 0.35 | 0.01 | 99 | 1015.6 |
| 20260510143520 | 54 | 252 | 1.0 | 7.0 | 0.00 | 0.35 | 0.01 | 99 | 1015.6 |
| 20260510143023 | 54 | 252 | 3.0 | 9.0 | 0.00 | 0.35 | 0.01 | 99 | 1015.4 |
| 20260510142519 | 54 | 252 | 3.0 | 9.0 | 0.00 | 0.35 | 0.01 | 99 | 1015.3 |
| 20260510142019 | 54 | 252 | 3.0 | 7.0 | 0.00 | 0.35 | 0.01 | 99 | 1015.3 |
| 20260510141527 | 54 | 252 | 2.0 | 7.0 | 0.00 | 0.35 | 0.01 | 99 | 1015.4 |
| 20260510141019 | 54 | 252 | 2.0 | 9.0 | 0.00 | 0.35 | 0.01 | 99 | 1015.2 |
| 20260510140518 | 54 | 252 | 3.0 | 9.0 | 0.00 | 0.35 | 0.01 | 99 | 1015.2 |
| 20260510140017 | 54 | 252 | 5.0 | 9.0 | 0.00 | 0.35 | 0.01 | 99 | 1015.1 |
| 20260510135520 | 54 | 252 | 4.0 | 8.0 | 0.00 | 0.35 | 0.01 | 99 | 1015.1 |
| 20260510135016 | 54 | 252 | 3.0 | 7.0 | 0.00 | 0.35 | 0.01 | 99 | 1015.0 |
| 20260510134516 | 54 | 252 | 4.0 | 7.0 | 0.00 | 0.35 | 0.01 | 99 | 1014.8 |
| 20260510134015 | 54 | 252 | 2.0 | 5.0 | 0.00 | 0.35 | 0.01 | 99 | 1014.8 |
| 20260510133515 | 54 | 252 | 2.0 | 4.0 | 0.00 | 0.35 | 0.01 | 99 | 1014.8 |
| 20260510133017 | 54 | 252 | 1.0 | 3.0 | 0.00 | 0.35 | 0.01 | 99 | 1014.8 |
| 20260510132515 | 53 | 252 | 0.0 | 4.0 | 0.00 | 0.35 | 0.01 | 99 | 1014.8 |
| 20260510132015 | 53 | 252 | 2.0 | 7.0 | 0.00 | 0.35 | 0.01 | 99 | 1014.9 |
| 20260510131515 | 53 | 252 | 5.0 | 7.0 | 0.00 | 0.35 | 0.01 | 99 | 1014.8 |
| 20260510131014 | 52 | 252 | 4.0 | 7.0 | 0.00 | 0.35 | 0.01 | 98 | 1014.8 |
| 20260510130514 | 53 | 252 | 3.0 | 7.0 | 0.00 | 0.35 | 0.01 | 99 | 1014.8 |
| 20260510130014 | 53 | 252 | 3.0 | 7.0 | 0.00 | 0.35 | 0.01 | 98 | 1014.9 |
| 20260510125516 | 53 | 252 | 2.0 | 4.0 | 0.00 | 0.35 | 0.01 | 98 | 1015.0 |
| 20260510125016 | 53 | 252 | 2.0 | 7.0 | 0.00 | 0.35 | 0.01 | 99 | 1015.0 |
| 20260510124512 | 53 | 252 | 3.0 | 9.0 | 0.00 | 0.35 | 0.01 | 99 | 1015.0 |
| 20260510124016 | 53 | 252 | 5.0 | 9.0 | 0.00 | 0.35 | 0.01 | 99 | 1014.9 |
| 20260510123512 | 54 | 252 | 4.0 | 8.0 | 0.00 | 0.35 | 0.01 | 99 | 1014.8 |
| 20260510123011 | 54 | 252 | 1.0 | 8.0 | 0.00 | 0.35 | 0.01 | 99 | 1014.8 |
| 20260510122509 | 54 | 252 | 0.0 | 8.0 | 0.00 | 0.35 | 0.01 | 99 | 1014.6 |
| 20260510122010 | 54 | 252 | 4.0 | 9.0 | 0.00 | 0.35 | 0.01 | 99 | 1014.4 |
| 20260510121509 | 53 | 252 | 6.0 | 9.0 | 0.00 | 0.35 | 0.01 | 99 | 1014.3 |
| 20260510121009 | 53 | 277 | 4.0 | 7.0 | 0.00 | 0.35 | 0.01 | 99 | 1014.4 |
| 20260510120513 | 53 | 277 | 4.0 | 8.0 | 0.00 | 0.35 | 0.01 | 99 | 1014.4 |
| 20260510120007 | 53 | 278 | 3.0 | 7.0 | 0.00 | 0.35 | 0.01 | 98 | 1014.6 |
| 20260510115507 | 53 | 279 | 3.0 | 7.0 | 0.00 | 0.35 | 0.01 | 99 | 1014.6 |
| 20260510115006 | 53 | 277 | 1.0 | 4.0 | 0.00 | 0.35 | 0.01 | 99 | 1014.5 |
| 20260510114505 | 53 | 276 | 2.0 | 5.0 | 0.00 | 0.35 | 0.01 | 99 | 1014.2 |
| 20260510114004 | 53 | 279 | 2.0 | 5.0 | 0.00 | 0.35 | 0.01 | 99 | 1013.9 |
| 20260510113504 | 53 | 267 | 1.0 | 4.0 | 0.00 | 0.35 | 0.01 | 99 | 1013.9 |
| 20260510113003 | 52 | 360 | 1.0 | 4.0 | 0.00 | 0.35 | 0.01 | 98 | 1013.9 |
| 20260510112503 | 52 | 360 | 2.0 | 4.0 | 0.00 | 0.35 | 0.01 | 98 | 1013.9 |
| 20260510112004 | 52 | 360 | 1.0 | 5.0 | 0.00 | 0.35 | 0.01 | 99 | 1014.0 |
| 20260510111504 | 52 | 360 | 2.0 | 5.0 | 0.00 | 0.35 | 0.01 | 99 | 1014.0 |
| 20260510111002 | 52 | 360 | 1.0 | 6.0 | 0.00 | 0.35 | 0.01 | 98 | 1013.9 |
| 20260510110502 | 52 | 360 | 3.0 | 6.0 | 0.00 | 0.35 | 0.01 | 98 | 1014.0 |
| 20260510110007 | 52 | 360 | 2.0 | 6.0 | 0.00 | 0.35 | 0.01 | 98 | 1014.0 |
| 20260510105503 | 52 | 360 | 2.0 | 6.0 | 0.00 | 0.35 | 0.01 | 98 | 1013.9 |
| 20260510105001 | 52 | 360 | 2.0 | 5.0 | 0.00 | 0.35 | 0.01 | 98 | 1014.0 |
| 20260510104505 | 52 | 360 | 0.0 | 8.0 | 0.00 | 0.35 | 0.01 | 98 | 1014.0 |
| 20260510104003 | 52 | 360 | 2.0 | 9.0 | 0.00 | 0.35 | 0.01 | 98 | 1014.0 |
| 20260510103501 | 52 | 360 | 2.0 | 9.0 | 0.00 | 0.35 | 0.01 | 98 | 1014.2 |
| 20260510103109 | 52 | 360 | 2.0 | 8.0 | 0.00 | 0.35 | 0.01 | 98 | 1014.0 |
| 20260510102600 | 52 | 360 | 2.0 | 8.0 | 0.00 | 0.35 | 0.01 | 98 | 1014.1 |
| 20260510102102 | 52 | 360 | 3.0 | 9.0 | 0.00 | 0.35 | 0.01 | 98 | 1013.8 |
| 20260510101609 | 52 | 360 | 4.0 | 9.0 | 0.00 | 0.35 | 0.01 | 98 | 1014.1 |
| 20260510101057 | 52 | 360 | 3.0 | 8.0 | 0.00 | 0.35 | 0.01 | 98 | 1014.2 |
| 20260510100556 | 52 | 360 | 2.0 | 8.0 | 0.00 | 0.35 | 0.01 | 98 | 1014.1 |
| 20260510100100 | 52 | 360 | 2.0 | 10.0 | 0.00 | 0.35 | 0.01 | 98 | 1014.0 |
| 20260510095555 | 52 | 360 | 2.0 | 8.0 | 0.00 | 0.35 | 0.01 | 98 | 1013.8 |
| 20260510095054 | 52 | 360 | 3.0 | 6.0 | 0.00 | 0.35 | 0.01 | 98 | 1013.8 |
| 20260510094554 | 52 | 360 | 1.0 | 5.0 | 0.00 | 0.35 | 0.01 | 98 | 1013.7 |
| 20260510094053 | 52 | 360 | 1.0 | 5.0 | 0.00 | 0.35 | 0.01 | 98 | 1013.9 |
| 20260510093553 | 52 | 360 | 0.0 | 5.0 | 0.00 | 0.35 | 0.01 | 98 | 1013.9 |
| 20260510093053 | 52 | 360 | 2.0 | 4.0 | 0.00 | 0.35 | 0.01 | 98 | 1014.0 |
| 20260510092553 | 52 | 360 | 1.0 | 4.0 | 0.00 | 0.35 | 0.01 | 98 | 1014.1 |
| 20260510092051 | 52 | 360 | 1.0 | 6.0 | 0.00 | 0.35 | 0.01 | 98 | 1014.0 |
| 20260510091551 | 52 | 360 | 0.0 | 6.0 | 0.00 | 0.35 | 0.01 | 98 | 1014.1 |
| 20260510091051 | 52 | 249 | 2.0 | 4.0 | 0.00 | 0.35 | 0.01 | 98 | 1014.0 |
| 20260510090550 | 52 | 360 | 2.0 | 3.0 | 0.00 | 0.35 | 0.01 | 98 | 1013.6 |
| 20260510090052 | 52 | 360 | 0.0 | 3.0 | 0.00 | 0.35 | 0.01 | 98 | 1013.6 |
| 20260510085549 | 52 | 360 | 0.0 | 4.0 | 0.00 | 0.35 | 0.01 | 98 | 1013.5 |
| 20260510085049 | 52 | 360 | 2.0 | 4.0 | 0.00 | 0.35 | 0.01 | 98 | 1013.5 |
| 20260510084549 | 52 | 360 | 0.0 | 2.0 | 0.00 | 0.35 | 0.01 | 98 | 1013.6 |
| 20260510084049 | 52 | 360 | 0.0 | 3.0 | 0.00 | 0.35 | 0.01 | 98 | 1013.6 |
| 20260510083549 | 52 | 360 | 1.0 | 4.0 | 0.01 | 0.35 | 0.01 | 98 | 1013.6 |
| 20260510083048 | 52 | 360 | 1.0 | 4.0 | 0.01 | 0.35 | 0.01 | 98 | 1013.4 |
| 20260510082547 | 53 | 360 | 0.0 | 4.0 | 0.01 | 0.35 | 0.01 | 98 | 1013.4 |
| 20260510082047 | 53 | 360 | 0.0 | 3.0 | 0.01 | 0.35 | 0.01 | 98 | 1013.4 |
| 20260510081555 | 52 | 360 | 0.0 | 4.0 | 0.01 | 0.35 | 0.01 | 98 | 1013.3 |
| 20260510081046 | 53 | 360 | 0.0 | 2.0 | 0.01 | 0.35 | 0.01 | 98 | 1013.3 |
| 20260510080546 | 53 | 249 | 0.0 | 3.0 | 0.01 | 0.35 | 0.01 | 98 | 1013.3 |
| 20260510080045 | 53 | 360 | 1.0 | 4.0 | 0.01 | 0.35 | 0.01 | 98 | 1013.1 |
| 20260510075548 | 53 | 360 | 2.0 | 5.0 | 0.01 | 0.35 | 0.01 | 98 | 1013.3 |
| 20260510075045 | 53 | 360 | 1.0 | 5.0 | 0.01 | 0.35 | 0.01 | 98 | 1013.1 |
| 20260510074545 | 52 | 360 | 2.0 | 4.0 | 0.01 | 0.35 | 0.01 | 98 | 1013.1 |
| 20260510074043 | 52 | 360 | 1.0 | 5.0 | 0.00 | 0.34 | 0.00 | 98 | 1013.1 |
| 20260510073543 | 52 | 360 | 0.0 | 5.0 | 0.00 | 0.34 | 0.00 | 98 | 1013.1 |
| 20260510073042 | 52 | 360 | 2.0 | 5.0 | 0.00 | 0.34 | 0.00 | 98 | 1013.2 |
| 20260510072542 | 52 | 360 | 0.0 | 2.0 | 0.00 | 0.34 | 0.00 | 98 | 1013.1 |
| 20260510072045 | 52 | 360 | 0.0 | 2.0 | 0.00 | 0.34 | 0.00 | 98 | 1013.0 |
| 20260510071541 | 52 | 360 | 0.0 | 0.0 | 0.00 | 0.34 | 0.00 | 98 | 1012.8 |
| 20260510071040 | 52 | 248 | 0.0 | 0.0 | 0.00 | 0.34 | 0.00 | 98 | 1012.6 |
| 20260510070543 | 52 | 248 | 0.0 | 0.0 | 0.00 | 0.34 | 0.00 | 98 | 1012.6 |
| 20260510070045 | 52 | 248 | 0.0 | 0.0 | 0.00 | 0.34 | 0.00 | 98 | 1012.5 |
| 20260510065540 | 51 | 360 | 0.0 | 1.0 | 0.00 | 0.34 | 0.00 | 98 | 1012.5 |
| 20260510065039 | 51 | 360 | 0.0 | 1.0 | 0.00 | 0.34 | 0.00 | 98 | 1012.5 |
| 20260510064539 | 51 | 360 | 0.0 | 2.0 | 0.00 | 0.34 | 0.00 | 98 | 1012.5 |
| 20260510064039 | 52 | 360 | 0.0 | 2.0 | 0.00 | 0.34 | 0.00 | 98 | 1012.6 |
| 20260510063537 | 52 | 360 | 0.0 | 1.0 | 0.00 | 0.34 | 0.00 | 98 | 1012.7 |
| 20260510063036 | 52 | 248 | 0.0 | 0.0 | 0.00 | 0.34 | 0.00 | 98 | 1012.7 |
| 20260510062536 | 52 | 360 | 0.0 | 0.0 | 0.00 | 0.34 | 0.00 | 98 | 1012.6 |
| 20260510062035 | 52 | 249 | 0.0 | 0.0 | 0.00 | 0.34 | 0.00 | 98 | 1012.6 |
| 20260510061535 | 52 | 360 | 0.0 | 0.0 | 0.00 | 0.34 | 0.00 | 98 | 1012.6 |
| 20260510061037 | 52 | 248 | 0.0 | 0.0 | 0.00 | 0.34 | 0.00 | 98 | 1012.7 |
| 20260510060536 | 52 | 360 | 0.0 | 0.0 | 0.00 | 0.34 | 0.00 | 98 | 1012.8 |
| 20260510060035 | 52 | 360 | 0.0 | 0.0 | 0.00 | 0.34 | 0.00 | 98 | 1012.8 |
| 20260510055533 | 52 | 360 | 0.0 | 0.0 | 0.00 | 0.34 | 0.00 | 98 | 1012.8 |
| 20260510055033 | 52 | 360 | 0.0 | 0.0 | 0.00 | 0.34 | 0.00 | 98 | 1012.7 |
| 20260510054542 | 52 | 360 | 0.0 | 0.0 | 0.00 | 0.34 | 0.00 | 98 | 1012.8 |
| 20260510054032 | 52 | 360 | 0.0 | 0.0 | 0.00 | 0.34 | 0.00 | 98 | 1012.8 |
| 20260510053533 | 52 | 360 | 0.0 | 0.0 | 0.00 | 0.34 | 0.00 | 98 | 1012.8 |
| 20260510053034 | 52 | 248 | 0.0 | 0.0 | 0.00 | 0.34 | 0.00 | 98 | 1012.8 |
| 20260510052531 | 52 | 360 | 0.0 | 0.0 | 0.00 | 0.34 | 0.00 | 98 | 1012.9 |
| 20260510052031 | 52 | 360 | 0.0 | 0.0 | 0.00 | 0.34 | 0.00 | 98 | 1013.0 |
| 20260510051534 | 52 | 360 | 0.0 | 0.0 | 0.00 | 0.34 | 0.00 | 98 | 1013.1 |
| 20260510051029 | 52 | 360 | 0.0 | 0.0 | 0.00 | 0.34 | 0.00 | 98 | 1013.1 |
| 20260510050529 | 52 | 360 | 0.0 | 0.0 | 0.00 | 0.34 | 0.00 | 98 | 1013.1 |
| 20260510050028 | 52 | 360 | 0.0 | 0.0 | 0.00 | 0.34 | 0.00 | 98 | 1013.3 |
| 20260510045528 | 52 | 360 | 0.0 | 0.0 | 0.00 | 0.34 | 0.00 | 98 | 1013.3 |
| 20260510045027 | 52 | 360 | 0.0 | 0.0 | 0.00 | 0.34 | 0.00 | 98 | 1013.3 |
| 20260510044527 | 52 | 360 | 0.0 | 2.0 | 0.00 | 0.34 | 0.00 | 98 | 1013.2 |
| 20260510044025 | 52 | 360 | 0.0 | 2.0 | 0.00 | 0.34 | 0.00 | 98 | 1013.2 |
| 20260510043525 | 52 | 360 | 0.0 | 2.0 | 0.00 | 0.34 | 0.00 | 97 | 1013.1 |
| 20260510043024 | 52 | 248 | 0.0 | 2.0 | 0.00 | 0.34 | 0.00 | 97 | 1013.1 |
| 20260510042522 | 52 | 360 | 0.0 | 2.0 | 0.00 | 0.34 | 0.00 | 97 | 1013.3 |
| 20260510042020 | 52 | 360 | 0.0 | 0.0 | 0.00 | 0.34 | 0.00 | 97 | 1013.3 |
| 20260510041519 | 52 | 360 | 0.0 | 1.0 | 0.00 | 0.34 | 0.00 | 97 | 1013.2 |
| 20260510041018 | 52 | 360 | 0.0 | 2.0 | 0.00 | 0.34 | 0.00 | 97 | 1013.2 |
| 20260510040517 | 52 | 360 | 0.0 | 2.0 | 0.00 | 0.34 | 0.00 | 97 | 1013.2 |
| 20260510040016 | 52 | 360 | 0.0 | 1.0 | 0.00 | 0.34 | 0.34 | 97 | 1013.0 |
| 20260510035516 | 52 | 360 | 0.0 | 1.0 | 0.00 | 0.34 | 0.34 | 97 | 1013.0 |
| 20260510035015 | 52 | 360 | 0.0 | 2.0 | 0.00 | 0.34 | 0.34 | 97 | 1012.9 |
| 20260510034516 | 52 | 360 | 0.0 | 2.0 | 0.00 | 0.34 | 0.34 | 97 | 1013.1 |
| 20260510034019 | 52 | 360 | 0.0 | 2.0 | 0.00 | 0.34 | 0.34 | 97 | 1012.8 |
| 20260510033515 | 52 | 360 | 0.0 | 2.0 | 0.00 | 0.34 | 0.34 | 97 | 1012.8 |
| 20260510033014 | 52 | 360 | 0.0 | 0.0 | 0.00 | 0.34 | 0.34 | 97 | 1012.8 |
| 20260510032515 | 52 | 360 | 0.0 | 0.0 | 0.00 | 0.34 | 0.34 | 97 | 1012.8 |
| 20260510032014 | 52 | 248 | 0.0 | 0.0 | 0.00 | 0.34 | 0.34 | 97 | 1012.8 |
| 20260510031514 | 52 | 248 | 0.0 | 0.0 | 0.00 | 0.34 | 0.34 | 97 | 1012.8 |
| 20260510031014 | 52 | 360 | 0.0 | 0.0 | 0.00 | 0.34 | 0.34 | 97 | 1012.7 |
| 20260510030513 | 52 | 360 | 0.0 | 0.0 | 0.00 | 0.34 | 0.34 | 97 | 1012.8 |
| 20260510030015 | 52 | 360 | 0.0 | 0.0 | 0.00 | 0.34 | 0.34 | 97 | 1012.6 |
| 20260510025513 | 52 | 360 | 0.0 | 0.0 | 0.00 | 0.34 | 0.34 | 97 | 1012.6 |
| 20260510025013 | 52 | 249 | 0.0 | 0.0 | 0.00 | 0.34 | 0.34 | 97 | 1012.8 |
| 20260510024513 | 52 | 360 | 0.0 | 2.0 | 0.00 | 0.34 | 0.34 | 97 | 1012.8 |
| 20260510024013 | 52 | 248 | 0.0 | 4.0 | 0.00 | 0.34 | 0.34 | 97 | 1012.8 |
| 20260510023512 | 52 | 360 | 2.0 | 4.0 | 0.00 | 0.34 | 0.34 | 96 | 1013.1 |
| 20260510023014 | 53 | 360 | 0.0 | 3.0 | 0.00 | 0.34 | 0.34 | 97 | 1013.0 |
| 20260510022516 | 53 | 360 | 1.0 | 3.0 | 0.00 | 0.34 | 0.34 | 97 | 1013.1 |
| 20260510022012 | 53 | 249 | 0.0 | 0.0 | 0.00 | 0.34 | 0.34 | 97 | 1013.0 |
| 20260510021516 | 53 | 249 | 0.0 | 0.0 | 0.00 | 0.34 | 0.34 | 96 | 1012.9 |
| 20260510021012 | 53 | 360 | 0.0 | 0.0 | 0.00 | 0.34 | 0.34 | 96 | 1012.8 |
| 20260510020511 | 53 | 360 | 0.0 | 2.0 | 0.00 | 0.34 | 0.34 | 96 | 1012.8 |
| 20260510020011 | 53 | 360 | 1.0 | 2.0 | 0.00 | 0.34 | 0.34 | 96 | 1012.8 |
| 20260510015511 | 53 | 249 | 1.0 | 3.0 | 0.00 | 0.34 | 0.34 | 96 | 1012.8 |
| 20260510015011 | 53 | 360 | 2.0 | 4.0 | 0.00 | 0.34 | 0.34 | 96 | 1012.9 |
| 20260510014513 | 53 | 360 | 1.0 | 5.0 | 0.00 | 0.34 | 0.34 | 96 | 1012.9 |
| 20260510014011 | 53 | 248 | 2.0 | 5.0 | 0.00 | 0.34 | 0.34 | 96 | 1012.8 |
| 20260510013512 | 53 | 360 | 2.0 | 4.0 | 0.00 | 0.34 | 0.34 | 96 | 1012.8 |
| 20260510013010 | 53 | 360 | 1.0 | 3.0 | 0.00 | 0.34 | 0.34 | 96 | 1012.8 |
| 20260510012513 | 53 | 248 | 0.0 | 4.0 | 0.00 | 0.34 | 0.34 | 96 | 1012.8 |
| 20260510012010 | 53 | 360 | 1.0 | 4.0 | 0.00 | 0.34 | 0.34 | 96 | 1012.8 |
| 20260510011510 | 53 | 360 | 2.0 | 5.0 | 0.00 | 0.34 | 0.34 | 96 | 1012.7 |
| 20260510011010 | 53 | 242 | 1.0 | 3.0 | 0.00 | 0.34 | 0.34 | 96 | 1012.7 |
| 20260510010509 | 53 | 360 | 0.0 | 4.0 | 0.00 | 0.34 | 0.34 | 96 | 1012.7 |
| 20260510010009 | 53 | 360 | 1.0 | 3.0 | 0.00 | 0.34 | 0.34 | 96 | 1012.6 |
| 20260510005509 | 53 | 360 | 0.0 | 3.0 | 0.00 | 0.34 | 0.34 | 96 | 1012.4 |
| 20260510005009 | 53 | 360 | 1.0 | 3.0 | 0.00 | 0.34 | 0.34 | 96 | 1012.6 |
| 20260510004508 | 53 | 360 | 1.0 | 3.0 | 0.00 | 0.34 | 0.34 | 96 | 1012.4 |
| 20260510004012 | 53 | 360 | 0.0 | 3.0 | 0.00 | 0.34 | 0.34 | 96 | 1012.3 |
| 20260510003507 | 53 | 249 | 1.0 | 4.0 | 0.00 | 0.34 | 0.34 | 96 | 1012.4 |
| 20260510003007 | 53 | 249 | 1.0 | 4.0 | 0.00 | 0.34 | 0.34 | 96 | 1012.2 |
| 20260510002510 | 53 | 249 | 3.0 | 5.0 | 0.00 | 0.34 | 0.34 | 96 | 1012.1 |
| 20260510002006 | 53 | 249 | 2.0 | 5.0 | 0.00 | 0.34 | 0.34 | 95 | 1012.0 |
| 20260510001507 | 53 | 249 | 2.0 | 5.0 | 0.00 | 0.34 | 0.34 | 96 | 1012.1 |
| 20260510001006 | 54 | 249 | 2.0 | 4.0 | 0.00 | 0.34 | 0.34 | 96 | 1012.0 |
| 20260510000506 | 54 | 249 | 1.0 | 4.0 | 0.01 | 0.34 | 0.34 | 95 | 1012.0 |
| 20260510000011 | 54 | 249 | 2.0 | 4.0 | 0.01 | 0.34 | 0.34 | 95 | 1012.0 |
| 20260509235506 | 54 | 249 | 0.0 | 5.0 | 0.02 | 0.34 | 0.34 | 95 | 1011.9 |
| 20260509235005 | 54 | 249 | 1.0 | 5.0 | 0.03 | 0.34 | 0.34 | 95 | 1011.9 |
| 20260509234508 | 54 | 249 | 2.0 | 5.0 | 0.03 | 0.34 | 0.34 | 95 | 1011.9 |
| 20260509234007 | 54 | 249 | 3.0 | 7.0 | 0.04 | 0.34 | 0.34 | 95 | 1011.7 |
| 20260509233504 | 54 | 249 | 3.0 | 7.0 | 0.05 | 0.34 | 0.34 | 95 | 1011.8 |
| 20260509233004 | 54 | 249 | 3.0 | 5.0 | 0.06 | 0.34 | 0.34 | 95 | 1011.7 |
| 20260509232506 | 55 | 249 | 3.0 | 5.0 | 0.06 | 0.34 | 0.34 | 95 | 1011.7 |
| 20260509232002 | 55 | 249 | 0.0 | 4.0 | 0.06 | 0.34 | 0.34 | 95 | 1011.8 |
| 20260509231502 | 54 | 249 | 1.0 | 3.0 | 0.06 | 0.34 | 0.34 | 95 | 1011.8 |
| 20260509231001 | 54 | 249 | 0.0 | 4.0 | 0.06 | 0.34 | 0.34 | 95 | 1011.9 |
| 20260509230500 | 55 | 249 | 1.0 | 5.0 | 0.05 | 0.33 | 0.33 | 95 | 1012.0 |
| 20260509230100 | 55 | 249 | 0.0 | 7.0 | 0.05 | 0.33 | 0.33 | 94 | 1012.4 |
| 20260509225601 | 55 | 249 | 4.0 | 8.0 | 0.04 | 0.32 | 0.32 | 94 | 1013.0 |
| 20260509225059 | 55 | 249 | 6.0 | 9.0 | 0.03 | 0.31 | 0.31 | 94 | 1013.0 |
| 20260509224600 | 55 | 249 | 5.0 | 9.0 | 0.03 | 0.31 | 0.31 | 94 | 1012.9 |
| 20260509224059 | 55 | 249 | 4.0 | 9.0 | 0.02 | 0.30 | 0.30 | 94 | 1012.1 |
| 20260509223559 | 55 | 256 | 3.0 | 9.0 | 0.01 | 0.28 | 0.28 | 94 | 1012.9 |
| 20260509223103 | 55 | 246 | 6.0 | 9.0 | 0.00 | 0.28 | 0.28 | 94 | 1013.3 |
| 20260509222559 | 55 | 223 | 4.0 | 6.0 | 0.00 | 0.28 | 0.28 | 94 | 1012.7 |
| 20260509222057 | 55 | 218 | 2.0 | 5.0 | 0.00 | 0.28 | 0.28 | 94 | 1012.5 |
| 20260509221557 | 55 | 217 | 2.0 | 4.0 | 0.00 | 0.28 | 0.28 | 94 | 1012.3 |
| 20260509221057 | 55 | 217 | 1.0 | 7.0 | 0.00 | 0.28 | 0.28 | 94 | 1012.2 |
| 20260509220557 | 55 | 217 | 3.0 | 8.0 | 0.00 | 0.28 | 0.28 | 94 | 1012.3 |
| 20260509220058 | 55 | 217 | 6.0 | 10.0 | 0.00 | 0.28 | 0.28 | 94 | 1012.3 |
| 20260509215559 | 55 | 220 | 5.0 | 10.0 | 0.00 | 0.28 | 0.28 | 93 | 1012.4 |
| 20260509215056 | 55 | 211 | 6.0 | 10.0 | 0.00 | 0.28 | 0.28 | 93 | 1012.3 |
| 20260509214555 | 55 | 229 | 3.0 | 9.0 | 0.00 | 0.28 | 0.28 | 94 | 1012.6 |
| 20260509214055 | 55 | 245 | 4.0 | 10.0 | 0.00 | 0.28 | 0.28 | 94 | 1012.6 |
| 20260509213555 | 55 | 184 | 5.0 | 12.0 | 0.01 | 0.28 | 0.28 | 94 | 1012.6 |
| 20260509213055 | 55 | 208 | 6.0 | 13.0 | 0.01 | 0.28 | 0.28 | 94 | 1012.7 |
| 20260509212554 | 55 | 219 | 7.0 | 13.0 | 0.01 | 0.28 | 0.28 | 93 | 1012.7 |
| 20260509212055 | 55 | 243 | 6.0 | 15.0 | 0.01 | 0.28 | 0.28 | 93 | 1012.6 |